Location: Seattle
(47.6060°N, 122.3310°W)
Time: 14:10:19
(UTC-08:00)

ISS - Visible Passes

Search period start: 18 January 2017 00:00
Search period end: 28 January 2017 00:00
Orbit: 400 x 410 km, 51.6° (Epoch: 19 January)

Date Brightness Start Highest point End Pass type
(mag) Time Alt. Az. Time Alt. Az. Time Alt. Az.
18 Jan -1.0 05:21:26 19° SSE 05:21:26 19° SSE 05:22:35 10° SE visible
19 Jan -0.9 06:04:22 12° SSW 06:04:22 12° SSW 06:05:03 10° SSW visible
27 Jan -0.8 18:58:36 10° S 18:59:06 12° S 18:59:06 12° S visible
